Flag for Poland Weather past 2 weeks in Rybnik, Poland

Now
39 °F

Scattered clouds.


Feels Like: 32 °F
Forecast: 31 / 42 °F
Wind: 13 mph from Northwest

Location: Katowice Airport

Current Time: Mar 5, 2015 at 3:38:58 PM

Latest Report: Mar 5, 2015 at 3:00 PM


Visibility: N/A

Pressure: 30.36 "Hg

Humidity: 70%

Dew point: 30 °F

Location of RybnikLocation

Historic Weather in Rybnik — Graph

°F

Rybnik temperature yesterday

Maximum temperature yesterday: 41 °F (at 12:00 PM)
Minimum temperature yesterday: 32 °F (at 7:00 PM)
Average temperature yesterday: 37 °F

Past Weeks' High & Low Weather Summary

 TemperatureHumidityPressure
High52 °F (Feb 23, 3:00 PM)100% (Feb 22, 2:30 AM)30.66 "Hg (Feb 22, 2:30 AM)
Low27 °F (Feb 22, 2:30 AM)29% (Feb 21, 1:00 PM)29.50 "Hg (Mar 2, 11:30 AM)
Average38 °F80%29.95 "Hg
* Reported Feb 18 2:00 PM — Mar 5 2:30 PM, Rybnik, Weather by CustomWeather, © 2015

Note: Actual official high and low records may vary slightly from our data, if they occured in-between our weather recording intervals... More about our weather records

Advertising

Rybnik weather history for previous 24 hours

 ConditionsComfort  
Time TempWeatherWind HumidityBarometerVisibility
2:30 PM
Thu, Mar 5
39 °FScattered clouds.13 mph70%30.33 "HgN/A
2:00 PM39 °FScattered clouds.7 mph75%30.33 "HgN/A
1:30 PM37 °FSprinkles. Broken clouds.5 mph81%30.33 "HgN/A
1:00 PM37 °FSprinkles. Partly sunny.9 mph81%30.33 "HgN/A
12:30 PM36 °FSnow flurries. Partly sunny.10 mph81%30.33 "HgN/A
12:00 PM39 °FScattered clouds.7 mph65%30.33 "HgN/A
11:30 AM37 °FSnow flurries. Partly sunny.12 mph75%30.33 "HgN/A
11:00 AM39 °FBroken clouds.9 mph65%30.33 "HgN/A
10:30 AM39 °FBroken clouds.13 mph65%30.33 "HgN/A
10:00 AM39 °FPartly sunny.9 mph70%30.33 "HgN/A
9:30 AM37 °FPartly sunny.13 mph75%30.33 "HgN/A
9:00 AM37 °FPassing clouds.8 mph75%30.30 "HgN/A
8:30 AM36 °FPassing clouds.8 mph81%30.30 "HgN/A
8:00 AM34 °FPassing clouds.7 mph81%30.30 "Hg5 mi
7:30 AM34 °FScattered clouds.8 mph81%30.30 "Hg4 mi
7:00 AM34 °FSnow flurries. Scattered clouds.6 mph81%30.30 "Hg4 mi
6:30 AM32 °FPartly sunny.3 mph87%30.30 "HgN/A
6:00 AM34 °FSnow flurries. Passing clouds.5 mph75%30.27 "Hg5 mi
5:30 AM34 °FLight snow. Passing clouds.6 mph75%30.27 "HgN/A
5:00 AM32 °FPassing clouds.6 mph80%30.27 "HgN/A
4:30 AM34 °FLight snow. Passing clouds.6 mph70%30.27 "HgN/A
4:00 AM34 °FPassing clouds.6 mph70%30.27 "HgN/A
3:00 AM34 °FClear.3 mph70%30.27 "Hg10 mi
2:30 AM34 °FPassing clouds.7 mph70%30.27 "Hg5 mi
2:00 AM34 °FPassing clouds.5 mph70%30.27 "Hg4 mi
1:30 AM32 °FPassing clouds.2 mph75%30.27 "Hg5 mi
1:00 AM32 °FClear.7 mph75%30.27 "Hg5 mi
12:30 AM30 °FClear.5 mph80%30.24 "Hg4 mi
12:00 AM30 °FClear.5 mph80%30.24 "Hg4 mi
11:30 PM
Wed, Mar 4
34 °FClear.7 mph65%30.24 "Hg4 mi
10:00 PM34 °FClear.6 mph70%30.24 "Hg4 mi
9:30 PM37 °FClear.8 mph56%30.24 "Hg4 mi
9:00 PM36 °FClear.8 mph60%30.21 "Hg4 mi
8:30 PM36 °FClear.7 mph60%30.21 "Hg5 mi
8:00 PM32 °FClear.3 mph75%30.21 "Hg4 mi
7:30 PM32 °FClear.3 mph75%30.21 "Hg4 mi
7:00 PM32 °FPassing clouds.3 mph87%30.18 "HgN/A
6:30 PM34 °FClear.No wind81%30.18 "Hg10 mi
6:00 PM37 °FPassing clouds.3 mph65%30.18 "HgN/A
5:30 PM36 °FPassing clouds.9 mph75%30.18 "HgN/A
5:00 PM37 °FPassing clouds.9 mph70%30.15 "HgN/A
4:30 PM37 °FScattered clouds.8 mph70%30.15 "HgN/A
4:00 PM39 °FPassing clouds.10 mph70%30.15 "HgN/A
3:30 PM37 °FSprinkles. Scattered clouds.17 mph81%30.15 "HgN/A
3:00 PM37 °FScattered clouds.15 mph75%30.12 "HgN/A
Weather by CustomWeather, © 2015

See weather overviewHow to use our weather pages